Flag for Puerto Rico Weather past 2 weeks in San Juan, Puerto Rico

Now
81 °F

Broken clouds.


Feels Like: 87 °F
Forecast: 79 / 87 °F
Wind: 9 mph from East

Location: Luis Munoz Marin

Current Time: May 23, 2015 at 8:04:50 AM

Latest Report: May 23, 2015 at 6:56 AM


Visibility: 8 mi

Pressure: 30.12 "Hg

Humidity: 82%

Dew point: 75 °F

Location of San JuanLocation

Historic Weather in San Juan — Graph

°F

San Juan temperature yesterday

Maximum temperature yesterday: 90 °F (at 12:56 PM)
Minimum temperature yesterday: 79 °F (at 3:56 AM)
Average temperature yesterday: 84 °F

Past Weeks' High & Low Weather Summary

 TemperatureHumidityPressure
High91 °F (May 8, 10:56 AM)97% (May 20, 5:56 PM)30.13 "Hg (May 20, 5:56 PM)
Low76 °F (May 14, 4:56 AM)44% (May 8, 10:56 AM)29.95 "Hg (May 20, 4:56 PM)
Average82 °F76%30.05 "Hg
* Reported May 8 6:56 AM — May 23 6:56 AM, San Juan, Weather by CustomWeather, © 2015

Note: Actual official high and low records may vary slightly from our data, if they occured in-between our weather recording intervals... More about our weather records

Advertising

San Juan weather history for previous 24 hours

 ConditionsComfort  
Time TempWeatherWind HumidityBarometerVisibility
6:56 AM
Sat, May 23
81 °FBroken clouds.9 mph82%30.12 "Hg8 mi
5:56 AM78 °FPassing clouds.6 mph90%30.10 "Hg7 mi
4:56 AM80 °FPassing clouds.6 mph85%30.08 "Hg10 mi
3:56 AM80 °FPassing clouds.6 mph85%30.07 "Hg10 mi
2:56 AM80 °FPassing clouds.5 mph85%30.08 "Hg10 mi
1:56 AM81 °FClear.3 mph82%30.08 "Hg10 mi
12:56 AM81 °FClear.6 mph82%30.11 "Hg10 mi
11:56 PM
Fri, May 22
81 °FClear.7 mph82%30.11 "Hg10 mi
10:56 PM81 °FClear.9 mph85%30.13 "Hg10 mi
9:56 PM81 °FClear.7 mph85%30.13 "Hg10 mi
8:56 PM82 °FPassing clouds.6 mph79%30.12 "Hg10 mi
7:56 PM83 °FPassing clouds.8 mph74%30.11 "Hg9 mi
6:56 PM84 °FBroken clouds.12 mph70%30.09 "Hg7 mi
5:56 PM85 °FBroken clouds.13 mph70%30.06 "Hg7 mi
4:56 PM87 °FBroken clouds.16 mph63%30.05 "Hg8 mi
3:56 PM88 °FBroken clouds.18 mph61%30.05 "Hg8 mi
2:56 PM89 °FScattered clouds.21 mph59%30.05 "Hg8 mi
1:56 PM89 °FScattered clouds.22 mph59%30.06 "Hg8 mi
12:56 PM90 °FScattered clouds.21 mph61%30.08 "Hg7 mi
11:56 AM89 °FScattered clouds.18 mph65%30.09 "Hg7 mi
10:56 AM89 °FScattered clouds.18 mph65%30.09 "Hg8 mi
9:56 AM88 °FScattered clouds.17 mph65%30.10 "Hg8 mi
8:56 AM85 °FScattered clouds.7 mph75%30.10 "Hg8 mi
Weather by CustomWeather, © 2015

See weather overviewHow to use our weather pages